Home   Weather   Al-Jamiliyah   Past weeks

Flag for Qatar Past Weather in Al-Jamiliyah, Qatar — Yesterday and Last 2 Weeks

Now
68 °F

Clear.


Feels Like: 68 °F
Forecast: 63 / 70 °F
Wind: 14 mph from Northwest

Location: Doha International Airport

Current Time: Feb 24, 2017 at 8:47:24 pm

Latest Report: Feb 24, 2017 at 7:00 pm


Visibility: 10 mi

Pressure: 30.12 "Hg

Humidity: 69%

Dew Point: 57 °F

Location of Al-JamiliyahLocation

Past Weather in Al-Jamiliyah — Graph

°F

Al-Jamiliyah Temperature Yesterday

Maximum temperature yesterday: 70 °F (at 12:00 pm)
Minimum temperature yesterday: 63 °F (at 12:00 am)
Average temperature yesterday: 66 °F

High & Low Weather Summary for the Past Weeks

 TemperatureHumidityPressure
High75 °F (Feb 10, 12:00 pm)100% (Feb 14, 7:00 pm)30.36 "Hg (Feb 14, 7:00 pm)
Low52 °F (Feb 19, 2:00 am)40% (Feb 21, 3:00 pm)29.80 "Hg (Feb 17, 6:00 am)
Average65 °F75%30.03 "Hg
* Reported Feb 9 7:00 pm — Feb 24 7:00 pm, Al-Jamiliyah, Weather by CustomWeather, © 2017

Note: Actual official high and low records may vary slightly from our data, if they occured in-between our weather recording intervals... More about our weather records

Advertising

Al-Jamiliyah Weather History for the Previous 24 Hours

Scroll right to see more
 ConditionsComfort  
Time TempWeatherWind HumidityBarometerVisibility
7:00 pm
Fri, Feb 24
68 °FClear.14 mph69%30.12 "Hg10 mi
6:00 pm68 °FClear.17 mph73%30.09 "Hg10 mi
5:00 pm70 °FSunny.17 mph64%30.07 "Hg10 mi
4:00 pm72 °FSunny.22 mph57%30.04 "Hg10 mi
3:00 pm72 °FSunny.20 mph65%30.04 "Hg10 mi
2:00 pm72 °FSunny.21 mph61%30.04 "Hg10 mi
1:00 pm72 °FSunny.20 mph65%30.07 "Hg10 mi
12:00 pm72 °FSunny.17 mph73%30.07 "Hg10 mi
11:00 am72 °FSunny.17 mph73%30.09 "Hg10 mi
10:00 am70 °FSunny.17 mph78%30.09 "Hg10 mi
9:00 am70 °FClear.16 mph78%30.09 "Hg5 mi
8:00 am68 °FClear.9 mph78%30.07 "Hg5 mi
7:00 am64 °FHaze.7 mph88%30.07 "Hg3 mi
6:00 am63 °FClear.5 mph94%30.04 "Hg4 mi
5:00 am64 °FClear.7 mph94%30.01 "Hg4 mi
4:00 am64 °FClear.5 mph88%29.98 "Hg5 mi
3:00 am64 °FClear.5 mph88%29.98 "Hg5 mi
2:00 am63 °FClear.6 mph94%29.98 "Hg4 mi
1:00 am64 °FClear.3 mph94%29.98 "Hg4 mi
12:00 am64 °FClear.6 mph94%29.98 "Hg5 mi
11:00 pm
Thu, Feb 23
66 °FClear.6 mph88%30.01 "Hg5 mi
10:00 pm66 °FClear.6 mph88%29.98 "Hg10 mi
9:00 pm66 °FClear.6 mph83%29.98 "Hg10 mi
8:00 pm66 °FClear.8 mph83%29.98 "Hg10 mi
Weather by CustomWeather, © 2017

See weather overviewHow to use our weather pages